| time (UTC) | temp F | wind direction | speed MPH | gust MPH | rain 1hr in | rain 24hr in | rain mn in | humidity % | barometer mb |
| 20260507025019 | 50 | 110 | 0.0 | 0.0 | 0.00 | 0.01 | 0.00 | 91 | 1012.2 |
| 20260507024019 | 50 | 110 | 0.0 | 0.0 | 0.00 | 0.01 | 0.00 | 91 | 1012.3 |
| 20260507023019 | 50 | 110 | 0.0 | 0.0 | 0.00 | 0.01 | 0.00 | 91 | 1012.2 |
| 20260507022020 | 50 | 110 | 0.0 | 0.0 | 0.00 | 0.01 | 0.00 | 91 | 1012.1 |
| 20260507021019 | 50 | 110 | 0.0 | 1.0 | 0.00 | 0.01 | 0.00 | 91 | 1011.9 |
| 20260507020020 | 50 | 110 | 0.0 | 0.0 | 0.00 | 0.01 | 0.00 | 91 | 1011.9 |
| 20260507015020 | 50 | 110 | 0.0 | 1.0 | 0.00 | 0.01 | 0.00 | 90 | 1011.9 |
| 20260507014020 | 50 | 110 | 0.0 | 1.0 | 0.00 | 0.01 | 0.00 | 90 | 1011.8 |
| 20260507013020 | 50 | 86 | 0.0 | 0.0 | 0.00 | 0.01 | 0.00 | 90 | 1011.7 |
| 20260507012020 | 50 | 86 | 0.0 | 0.0 | 0.00 | 0.01 | 0.00 | 90 | 1011.7 |
| 20260507011020 | 50 | 86 | 0.0 | 0.0 | 0.00 | 0.01 | 0.00 | 90 | 1011.6 |
| 20260507010020 | 50 | 86 | 0.0 | 1.0 | 0.00 | 0.01 | 0.00 | 90 | 1011.6 |
| 20260507005020 | 50 | 85 | 0.0 | 0.0 | 0.00 | 0.01 | 0.00 | 91 | 1011.6 |
| 20260507004020 | 50 | 247 | 0.0 | 1.0 | 0.00 | 0.01 | 0.00 | 91 | 1011.5 |
| 20260507003020 | 51 | 247 | 0.0 | 0.0 | 0.00 | 0.01 | 0.00 | 92 | 1011.4 |
| 20260507002020 | 51 | 247 | 0.0 | 0.0 | 0.00 | 0.01 | 0.00 | 92 | 1011.4 |
| 20260507001020 | 51 | 247 | 0.0 | 1.0 | 0.00 | 0.01 | 0.00 | 92 | 1011.4 |
| 20260507000020 | 51 | 247 | 0.0 | 0.0 | 0.00 | 0.01 | 0.00 | 92 | 1011.4 |
| 20260506235020 | 51 | 247 | 0.0 | 1.0 | 0.00 | 0.01 | 0.00 | 92 | 1011.4 |
| 20260506234020 | 51 | 248 | 0.0 | 1.0 | 0.00 | 0.01 | 0.00 | 92 | 1011.4 |
| 20260506233020 | 51 | 248 | 0.0 | 0.0 | 0.00 | 0.01 | 0.00 | 92 | 1011.3 |
| 20260506232020 | 51 | 248 | 0.0 | 0.0 | 0.00 | 0.01 | 0.00 | 92 | 1011.3 |
| 20260506231020 | 51 | 248 | 0.0 | 0.0 | 0.00 | 0.01 | 0.00 | 92 | 1011.2 |
| 20260506230020 | 51 | 231 | 0.0 | 0.0 | 0.00 | 0.01 | 0.00 | 92 | 1011.3 |
| 20260506225020 | 51 | 254 | 0.0 | 0.0 | 0.00 | 0.01 | 0.00 | 92 | 1011.1 |
| 20260506224020 | 51 | 254 | 0.0 | 1.0 | 0.00 | 0.01 | 0.00 | 91 | 1011.1 |
| 20260506223020 | 52 | 262 | 0.0 | 1.0 | 0.00 | 0.01 | 0.00 | 92 | 1010.9 |
| 20260506222020 | 52 | 262 | 0.0 | 1.0 | 0.00 | 0.01 | 0.00 | 91 | 1010.9 |
| 20260506221020 | 52 | 264 | 0.0 | 1.0 | 0.00 | 0.01 | 0.01 | 91 | 1010.8 |
| 20260506220020 | 52 | 257 | 0.0 | 0.0 | 0.00 | 0.01 | 0.01 | 92 | 1010.6 |
| 20260506215020 | 52 | 257 | 0.0 | 0.0 | 0.00 | 0.01 | 0.01 | 92 | 1010.5 |
| 20260506214020 | 52 | 257 | 0.0 | 0.0 | 0.00 | 0.01 | 0.01 | 92 | 1010.4 |
| 20260506213020 | 52 | 254 | 0.0 | 1.0 | 0.00 | 0.01 | 0.01 | 91 | 1010.1 |
| 20260506212020 | 53 | 262 | 0.0 | 1.0 | 0.00 | 0.01 | 0.01 | 91 | 1010.0 |
| 20260506211020 | 53 | 262 | 0.0 | 1.0 | 0.00 | 0.01 | 0.01 | 91 | 1010.0 |
| 20260506210020 | 53 | 262 | 0.0 | 0.0 | 0.00 | 0.01 | 0.01 | 91 | 1010.1 |
| 20260506205021 | 53 | 257 | 0.0 | 1.0 | 0.00 | 0.01 | 0.01 | 91 | 1010.1 |
| 20260506204021 | 54 | 255 | 0.0 | 1.0 | 0.00 | 0.01 | 0.01 | 91 | 1010.0 |
| 20260506203021 | 54 | 255 | 0.0 | 0.0 | 0.00 | 0.01 | 0.01 | 91 | 1009.9 |
| 20260506202021 | 54 | 255 | 0.0 | 0.0 | 0.00 | 0.01 | 0.01 | 91 | 1009.8 |
| 20260506201021 | 54 | 255 | 0.0 | 1.0 | 0.00 | 0.01 | 0.01 | 91 | 1009.8 |
| 20260506200021 | 55 | 252 | 0.0 | 0.0 | 0.00 | 0.01 | 0.01 | 91 | 1009.6 |
| 20260506195021 | 55 | 252 | 0.0 | 0.0 | 0.00 | 0.01 | 0.01 | 91 | 1009.5 |
| 20260506194021 | 55 | 252 | 0.0 | 0.0 | 0.00 | 0.01 | 0.01 | 91 | 1009.3 |
| 20260506193021 | 55 | 252 | 0.0 | 0.0 | 0.00 | 0.01 | 0.01 | 90 | 1009.3 |
| 20260506192021 | 55 | 252 | 0.0 | 1.0 | 0.00 | 0.04 | 0.01 | 89 | 1009.2 |
| 20260506191021 | 56 | 258 | 0.0 | 1.0 | 0.00 | 0.04 | 0.01 | 88 | 1009.0 |
| 20260506190021 | 56 | 187 | 0.0 | 1.0 | 0.00 | 0.04 | 0.01 | 86 | 1009.0 |
| 20260506185021 | 57 | 252 | 0.0 | 1.0 | 0.00 | 0.04 | 0.01 | 86 | 1008.9 |
| 20260506184021 | 57 | 252 | 0.0 | 1.0 | 0.00 | 0.04 | 0.01 | 83 | 1008.7 |
| 20260506183021 | 57 | 259 | 0.0 | 1.0 | 0.00 | 0.04 | 0.01 | 82 | 1008.4 |
| 20260506182021 | 57 | 281 | 0.0 | 2.0 | 0.00 | 0.04 | 0.01 | 82 | 1008.3 |
| 20260506181021 | 57 | 122 | 0.0 | 2.0 | 0.00 | 0.04 | 0.01 | 81 | 1008.2 |
| 20260506180021 | 58 | 264 | 0.0 | 1.0 | 0.00 | 0.04 | 0.01 | 81 | 1008.2 |
| 20260506175021 | 58 | 184 | 0.0 | 1.0 | 0.00 | 0.04 | 0.01 | 79 | 1008.2 |
| 20260506174021 | 59 | 203 | 0.0 | 1.0 | 0.00 | 0.04 | 0.01 | 76 | 1008.0 |
| 20260506173021 | 59 | 262 | 0.0 | 1.0 | 0.00 | 0.04 | 0.01 | 76 | 1008.1 |
| 20260506172021 | 59 | 110 | 0.0 | 2.0 | 0.00 | 0.04 | 0.01 | 75 | 1007.9 |
| 20260506171021 | 59 | 143 | 1.0 | 4.0 | 0.00 | 0.04 | 0.01 | 76 | 1007.8 |
| 20260506170021 | 60 | 187 | 1.0 | 5.0 | 0.00 | 0.04 | 0.01 | 74 | 1007.6 |
| 20260506165021 | 60 | 209 | 1.0 | 4.0 | 0.00 | 0.04 | 0.01 | 75 | 1007.6 |
| 20260506164021 | 60 | 288 | 1.0 | 4.0 | 0.00 | 0.04 | 0.01 | 75 | 1007.7 |
| 20260506163021 | 61 | 231 | 1.0 | 6.0 | 0.00 | 0.04 | 0.01 | 73 | 1007.5 |
| 20260506162021 | 61 | 293 | 1.0 | 3.0 | 0.00 | 0.04 | 0.01 | 72 | 1007.6 |
| 20260506161021 | 62 | 318 | 2.0 | 5.0 | 0.00 | 0.04 | 0.01 | 68 | 1007.5 |
| 20260506160021 | 64 | 264 | 1.0 | 2.0 | 0.00 | 0.04 | 0.01 | 58 | 1007.3 |
| 20260506155021 | 64 | 134 | 1.0 | 4.0 | 0.00 | 0.04 | 0.01 | 55 | 1007.2 |
| 20260506154021 | 64 | 124 | 1.0 | 2.0 | 0.00 | 0.04 | 0.01 | 56 | 1007.2 |
| 20260506153022 | 65 | 109 | 1.0 | 4.0 | 0.00 | 0.04 | 0.01 | 55 | 1007.3 |
| 20260506152022 | 65 | 147 | 0.0 | 1.0 | 0.00 | 0.04 | 0.01 | 55 | 1007.3 |
| 20260506151022 | 65 | 108 | 0.0 | 2.0 | 0.00 | 0.04 | 0.01 | 56 | 1007.3 |
| 20260506150022 | 65 | 122 | 0.0 | 2.0 | 0.00 | 0.04 | 0.01 | 54 | 1007.2 |
| 20260506145022 | 65 | 271 | 0.0 | 1.0 | 0.00 | 0.04 | 0.01 | 55 | 1007.2 |
| 20260506144022 | 65 | 276 | 0.0 | 3.0 | 0.00 | 0.04 | 0.01 | 56 | 1007.1 |
| 20260506143022 | 65 | 263 | 0.0 | 3.0 | 0.00 | 0.04 | 0.01 | 56 | 1006.9 |
| 20260506142022 | 66 | 271 | 0.0 | 1.0 | 0.00 | 0.04 | 0.01 | 54 | 1007.0 |
| 20260506141022 | 66 | 261 | 0.0 | 1.0 | 0.00 | 0.04 | 0.01 | 55 | 1007.0 |
| 20260506140022 | 66 | 273 | 1.0 | 1.0 | 0.00 | 0.04 | 0.01 | 53 | 1007.1 |
| 20260506135022 | 68 | 271 | 0.0 | 3.0 | 0.00 | 0.04 | 0.01 | 51 | 1007.1 |
| 20260506134022 | 67 | 261 | 0.0 | 1.0 | 0.00 | 0.04 | 0.01 | 50 | 1007.1 |
| 20260506133022 | 68 | 187 | 0.0 | 2.0 | 0.00 | 0.04 | 0.01 | 50 | 1007.1 |
| 20260506132022 | 67 | 273 | 0.0 | 3.0 | 0.00 | 0.06 | 0.01 | 51 | 1007.2 |
| 20260506131022 | 68 | 251 | 0.0 | 2.0 | 0.00 | 0.06 | 0.01 | 50 | 1007.2 |
| 20260506130022 | 68 | 193 | 0.0 | 2.0 | 0.00 | 0.06 | 0.01 | 51 | 1007.2 |
| 20260506125022 | 68 | 260 | 0.0 | 2.0 | 0.00 | 0.06 | 0.01 | 48 | 1007.2 |
| 20260506124022 | 69 | 260 | 0.0 | 2.0 | 0.00 | 0.06 | 0.01 | 48 | 1007.2 |
| 20260506123022 | 69 | 219 | 0.0 | 2.0 | 0.00 | 0.06 | 0.01 | 49 | 1007.2 |
| 20260506122022 | 69 | 252 | 1.0 | 4.0 | 0.00 | 0.06 | 0.01 | 49 | 1007.2 |
| 20260506121022 | 69 | 260 | 0.0 | 1.0 | 0.00 | 0.06 | 0.01 | 51 | 1007.2 |
| 20260506120022 | 67 | 257 | 1.0 | 3.0 | 0.00 | 0.06 | 0.01 | 52 | 1007.1 |
| 20260506115022 | 68 | 285 | 0.0 | 1.0 | 0.00 | 0.06 | 0.01 | 53 | 1007.3 |
| 20260506114022 | 67 | 99 | 0.0 | 2.0 | 0.00 | 0.06 | 0.01 | 52 | 1007.5 |
| 20260506113022 | 69 | 243 | 0.0 | 3.0 | 0.00 | 0.06 | 0.01 | 50 | 1007.5 |
| 20260506112022 | 68 | 247 | 0.0 | 1.0 | 0.00 | 0.06 | 0.01 | 54 | 1007.5 |
| 20260506111022 | 67 | 255 | 1.0 | 3.0 | 0.00 | 0.06 | 0.01 | 55 | 1007.6 |
| 20260506110022 | 66 | 264 | 0.0 | 1.0 | 0.00 | 0.06 | 0.01 | 58 | 1007.7 |
| 20260506105022 | 66 | 251 | 0.0 | 1.0 | 0.00 | 0.06 | 0.01 | 59 | 1007.7 |
| 20260506104022 | 66 | 289 | 0.0 | 2.0 | 0.00 | 0.06 | 0.01 | 60 | 1007.9 |
| 20260506103022 | 66 | 243 | 0.0 | 4.0 | 0.00 | 0.06 | 0.01 | 59 | 1007.9 |
| 20260506102022 | 67 | 258 | 0.0 | 1.0 | 0.00 | 0.06 | 0.01 | 58 | 1008.0 |
| 20260506101022 | 68 | 293 | 0.0 | 1.0 | 0.00 | 0.06 | 0.01 | 54 | 1007.8 |
| 20260506100023 | 70 | 180 | 0.0 | 2.0 | 0.00 | 0.06 | 0.01 | 54 | 1007.9 |
| 20260506095023 | 69 | 252 | 1.0 | 3.0 | 0.00 | 0.06 | 0.01 | 56 | 1008.0 |
| 20260506094023 | 67 | 237 | 0.0 | 1.0 | 0.00 | 0.06 | 0.01 | 59 | 1008.0 |
| 20260506093023 | 65 | 245 | 0.0 | 2.0 | 0.00 | 0.06 | 0.01 | 61 | 1008.0 |
| 20260506092023 | 65 | 254 | 0.0 | 2.0 | 0.00 | 0.06 | 0.01 | 61 | 1008.0 |
| 20260506091023 | 66 | 185 | 0.0 | 0.0 | 0.00 | 0.06 | 0.01 | 61 | 1007.9 |
| 20260506090023 | 65 | 257 | 0.0 | 1.0 | 0.00 | 0.06 | 0.01 | 66 | 1007.9 |
| 20260506085023 | 65 | 262 | 0.0 | 2.0 | 0.00 | 0.06 | 0.01 | 64 | 1007.9 |
| 20260506084023 | 64 | 230 | 0.0 | 1.0 | 0.01 | 0.06 | 0.01 | 64 | 1007.7 |
| 20260506083023 | 65 | 129 | 0.0 | 1.0 | 0.01 | 0.06 | 0.01 | 63 | 1007.9 |
| 20260506082023 | 65 | 263 | 0.0 | 2.0 | 0.01 | 0.06 | 0.01 | 64 | 1007.9 |
| 20260506081023 | 64 | 255 | 0.0 | 2.0 | 0.01 | 0.06 | 0.01 | 66 | 1007.7 |
| 20260506073023 | 63 | 124 | 0.0 | 1.0 | 0.00 | 0.05 | 0.00 | 72 | 1007.6 |
| 20260506072023 | 62 | 221 | 0.0 | 1.0 | 0.00 | 0.05 | 0.00 | 74 | 1007.4 |
| 20260506071023 | 61 | 265 | 0.0 | 1.0 | 0.00 | 0.05 | 0.00 | 75 | 1007.5 |
| 20260506062023 | 57 | 272 | 1.0 | 3.0 | 0.00 | 0.05 | 0.00 | 84 | 1007.4 |
| 20260506061023 | 57 | 248 | 0.0 | 2.0 | 0.00 | 0.05 | 0.00 | 84 | 1007.4 |
| 20260506051024 | 54 | 304 | 0.0 | 2.0 | 0.00 | 0.05 | 0.00 | 90 | 1007.5 |
| 20260506045024 | 54 | 271 | 0.0 | 1.0 | 0.00 | 0.05 | 0.00 | 90 | 1007.5 |
| 20260506044024 | 54 | 272 | 0.0 | 1.0 | 0.00 | 0.05 | 0.00 | 90 | 1007.5 |
| 20260506043024 | 54 | 320 | 0.0 | 1.0 | 0.00 | 0.05 | 0.00 | 90 | 1007.5 |
| 20260506042024 | 54 | 278 | 0.0 | 1.0 | 0.00 | 0.05 | 0.00 | 90 | 1007.5 |
| 20260506041024 | 54 | 291 | 0.0 | 1.0 | 0.00 | 0.05 | 0.00 | 90 | 1007.5 |
| 20260506040024 | 54 | 155 | 0.0 | 1.0 | 0.00 | 0.05 | 0.00 | 90 | 1007.4 |
| 20260506035024 | 54 | 302 | 0.0 | 2.0 | 0.00 | 0.05 | 0.00 | 90 | 1007.4 |
| 20260506034024 | 54 | 129 | 0.0 | 1.0 | 0.00 | 0.05 | 0.00 | 91 | 1007.6 |
| 20260506033024 | 55 | 210 | 0.0 | 2.0 | 0.00 | 0.05 | 0.00 | 91 | 1007.7 |
| 20260506032024 | 55 | 236 | 0.0 | 1.0 | 0.00 | 0.05 | 0.00 | 91 | 1007.6 |
| 20260506031024 | 55 | 297 | 0.0 | 2.0 | 0.00 | 0.05 | 0.00 | 91 | 1007.6 |
| 20260506030024 | 55 | 115 | 0.0 | 3.0 | 0.00 | 0.05 | 0.00 | 92 | 1007.9 |